CW7056 Olongapo City PH current weather conditions

sailwx.info

Wind from 110

Air temperature 25.6° C
Dewpoint 24.9° C

Last reported at 2014-Jul-31 12:41 UTC.
Time now 2014-Jul-31 13:28 UTC

Location: N 14°51' E 120°16'.
View on Google Maps.

See reports from other nearby stations

  
Tides and Currents Weather Stations Pressure Air Temp Water Temp Dewpoint Dewpoint Depression Visibility Wind Speed Wind Dir Waves Ship Positions
date/time (UTC)wind fromknots sea level pressurealtimeterstation pressurevisibilityair tempwater tempwave heightnotes
2014-Jul-31 12:41 110 25.6
2014-Jul-31 12:31 110 25.6
2014-Jul-31 12:21 110 25.6
2014-Jul-31 12:11 111 25.6
2014-Jul-31 12:01 110 25.6
2014-Jul-31 11:51 110 25.6
2014-Jul-31 11:40 153 0 gusting 0 25.6
2014-Jul-31 11:27 173 26.1
2014-Jul-31 11:16 175 26.1
2014-Jul-31 11:06 175 26.1
2014-Jul-31 10:55 176 26.7
2014-Jul-31 10:44 360 26.7
2014-Jul-31 10:34 360 26.1
2014-Jul-31 10:23 360 26.1
2014-Jul-31 10:13 177 26.7
2014-Jul-31 10:01 178 26.7
2014-Jul-31 09:51 179 26.7
2014-Jul-31 09:40 179 26.7
2014-Jul-31 09:30 179 26.7
2014-Jul-31 09:20 178 26.7
2014-Jul-31 09:09 178 26.7
2014-Jul-31 08:58 177 27.2
2014-Jul-31 08:48 173 27.8
2014-Jul-31 08:37 27.8
2014-Jul-31 08:27 360 27.8
2014-Jul-31 08:17 360 27.8
2014-Jul-31 08:07 144 0 gusting 0 27.8
2014-Jul-31 07:56 129 27.8
2014-Jul-31 07:46 360 27.2
2014-Jul-31 07:36 360 27.2
2014-Jul-31 07:25 360 26.7
2014-Jul-31 07:15 360 26.7
2014-Jul-31 07:05 155 26.7
2014-Jul-31 06:55 360 26.7
2014-Jul-31 06:44 360 26.7
2014-Jul-31 06:34 360 27.2
2014-Jul-31 06:24 360 27.8
2014-Jul-31 06:13 196 28.3
2014-Jul-31 06:02 177 28.9
2014-Jul-31 05:51 187 28.9
2014-Jul-31 04:50 188 27.2
2014-Jul-31 04:40 188 26.7
2014-Jul-31 04:30 188 26.7
2014-Jul-31 04:18 188 26.7
2014-Jul-31 04:08 189 26.7
2014-Jul-31 03:58 189 26.7
2014-Jul-31 03:48 189 26.7
2014-Jul-31 03:38 188 27.2
2014-Jul-31 03:28 188 27.8
2014-Jul-31 03:17 188 27.2
2014-Jul-31 03:07 188 27.2
2014-Jul-31 02:57 188 27.2
2014-Jul-31 02:47 188 27.2
2014-Jul-31 02:37 143 27.8
2014-Jul-31 02:26 154 27.8
2014-Jul-31 02:16 159 27.8
2014-Jul-31 02:05 164 27.8
2014-Jul-31 01:53 149 0 gusting 0 27.8
2014-Jul-31 01:43 164 27.8
2014-Jul-31 01:32 117 0 gusting 0 27.8
2014-Jul-31 01:22 166 27.8
2014-Jul-31 01:12 173 0 gusting 0 28.9
2014-Jul-31 01:02 173 28.9
2014-Jul-31 00:51 173 28.9
2014-Jul-31 00:41 169 0 gusting 0 28.9
2014-Jul-31 00:31 208 28.9
2014-Jul-31 00:20 214 0 gusting 0 28.3
2014-Jul-31 00:09 216 27.8
2014-Jul-30 23:59 217 27.2
2014-Jul-30 23:48 360 27.2
2014-Jul-30 23:38 360 27.2
2014-Jul-30 23:28 360 26.1
2014-Jul-30 23:18 360 26.1
2014-Jul-30 23:06 360 26.1
2014-Jul-30 22:56 360 26.1
2014-Jul-30 22:46 360 25.6
2014-Jul-30 22:36 360 25.6
2014-Jul-30 22:25 360 25.6
2014-Jul-30 22:15 360 25.6
2014-Jul-30 22:05 360 25.6
2014-Jul-30 21:54 360 25.6
2014-Jul-30 21:32 360 25.6
2014-Jul-30 21:22 360 25.6
2014-Jul-30 21:11 360 25.6
2014-Jul-30 21:00 360 25.6
2014-Jul-30 20:49 360 26.1
2014-Jul-30 20:38 360 26.1
2014-Jul-30 20:28 360 25.6
2014-Jul-30 20:17 360 25.6
2014-Jul-30 20:07 360 26.1
2014-Jul-30 19:47 360 26.1
2014-Jul-30 19:37 360 26.1
2014-Jul-30 19:26 360 26.1
2014-Jul-30 19:16 360 26.1
2014-Jul-30 19:06 26.1
2014-Jul-30 18:56 26.7
2014-Jul-30 18:46 360 26.7
2014-Jul-30 18:35 360 26.7
2014-Jul-30 18:25 360 26.1
2014-Jul-30 18:15 175 26.1
2014-Jul-30 18:05 173 26.1
2014-Jul-30 17:55 190 26.1
2014-Jul-30 17:43 191 26.1
2014-Jul-30 17:33 191 26.1
2014-Jul-30 17:23 190 26.7
2014-Jul-30 17:11 190 26.7
2014-Jul-30 17:01 360 26.1
2014-Jul-30 16:49 360 26.1
2014-Jul-30 16:39 186 26.1
2014-Jul-30 16:27 186 26.1
2014-Jul-30 16:17 186 26.1
2014-Jul-30 16:07 185 26.7
2014-Jul-30 15:57 184 0 gusting 0 26.1
2014-Jul-30 15:46 196 26.1
2014-Jul-30 15:36 210 25.6
2014-Jul-30 15:26 210 0 gusting 0 26.1
2014-Jul-30 15:16 181 0 gusting 0 26.7
2014-Jul-30 15:06 182 26.7
2014-Jul-30 14:56 181 26.7
2014-Jul-30 14:45 181 26.7
2014-Jul-30 14:35 180 26.7
2014-Jul-30 14:25 180 0 gusting 0 26.7
2014-Jul-30 14:14 180 26.7
2014-Jul-30 13:52 360 26.1
2014-Jul-30 13:41 360 26.7
2014-Jul-30 13:31 360 26.7
2014-Jul-30 12:57 360 26.7
2014-Jul-30 12:47 167 0 gusting 0 26.7
2014-Jul-30 12:26 360 26.7
2014-Jul-30 12:15 360 26.7
2014-Jul-30 12:05 26.1
2014-Jul-30 11:55 360 26.1
2014-Jul-30 11:45 360 26.1
2014-Jul-30 11:35 360 26.1
2014-Jul-30 11:25 360 26.1
2014-Jul-30 11:15 360 26.1
2014-Jul-30 11:05 360 26.1
2014-Jul-30 10:54 360 26.1
2014-Jul-30 10:44 360 26.1
2014-Jul-30 10:34 360 26.7
2014-Jul-30 10:23 360 27.2
2014-Jul-30 10:13 360 27.2
2014-Jul-30 10:03 360 27.8
2014-Jul-30 09:53 27.8
2014-Jul-30 09:43 167 27.2
2014-Jul-30 09:32 167 27.2
2014-Jul-30 09:22 167 27.8
2014-Jul-30 09:12 167 27.8
2014-Jul-30 09:02 134 28.3
2014-Jul-30 08:51 28.3
2014-Jul-30 08:41 165 28.3
2014-Jul-30 08:31 167 28.3
2014-Jul-30 08:20 166 27.8
2014-Jul-30 08:10 166 28.3
2014-Jul-30 08:00 166 27.8
2014-Jul-30 07:50 360 28.3
2014-Jul-30 07:39 360 27.8
2014-Jul-30 07:29 166 27.8
2014-Jul-30 07:19 166 27.8
2014-Jul-30 07:08 28.9
2014-Jul-30 06:58 189 29.4
2014-Jul-30 06:48 168 30.0
2014-Jul-30 06:26 167 29.4
2014-Jul-30 06:13 168 0 gusting 0 29.4
2014-Jul-30 06:03 180 29.4
2014-Jul-30 05:53 129 29.4
2014-Jul-30 05:43 165 29.4
2014-Jul-30 05:32 152 0 gusting 0 29.4
2014-Jul-30 05:22 360 30.0
2014-Jul-30 05:11 184 0 gusting 0 30.0
2014-Jul-30 05:00 190 29.4
2014-Jul-30 04:49 29.4
2014-Jul-30 04:39 205 28.9
2014-Jul-30 04:29 239 28.9
2014-Jul-30 04:19 239 30.0
2014-Jul-30 04:09 215 0 gusting 0 30.0
2014-Jul-30 03:59 236 28.3
2014-Jul-30 03:47 191 0 gusting 0 27.2
2014-Jul-30 03:37 201 26.7
2014-Jul-30 03:27 178 26.7
2014-Jul-30 03:17 27.8
2014-Jul-30 03:07 360 27.8
2014-Jul-30 02:57 163 0 gusting 0 28.3
2014-Jul-30 02:46 360 28.3
2014-Jul-30 02:36 360 27.8
2014-Jul-30 02:26 135 27.2
2014-Jul-30 02:16 360 27.2
2014-Jul-30 02:05 132 28.3
2014-Jul-30 01:55 139 0 gusting 0 28.9
2014-Jul-30 01:44 184 28.3
2014-Jul-30 01:34 180 28.3
2014-Jul-30 01:23 178 28.3
2014-Jul-30 01:13 204 28.3
2014-Jul-30 01:03 202 0 gusting 0 28.3
2014-Jul-30 00:53 203 27.8
2014-Jul-30 00:42 202 28.3
2014-Jul-30 00:32 202 27.8
2014-Jul-30 00:22 204 27.8
2014-Jul-30 00:12 203 27.2
2014-Jul-30 00:02 203 26.7
2014-Jul-29 23:51 203 26.7
2014-Jul-29 23:41 202 26.7
2014-Jul-29 23:31 205 26.7
2014-Jul-29 23:20 205 26.7
2014-Jul-29 23:09 204 26.7
2014-Jul-29 22:59 203 26.7
2014-Jul-29 22:48 202 26.1
2014-Jul-29 22:37 205 25.6
2014-Jul-29 22:27 205 25.6
2014-Jul-29 22:17 205 25.6
2014-Jul-29 22:07 205 25.6
2014-Jul-29 21:57 205 25.6
2014-Jul-29 21:46 204 25.6
2014-Jul-29 21:36 205 26.1
2014-Jul-29 21:25 205 26.1
2014-Jul-29 21:15 205 26.1
2014-Jul-29 20:55 171 26.7
2014-Jul-29 20:44 138 26.7
2014-Jul-29 20:23 172 26.7
2014-Jul-29 20:13 151 26.7
2014-Jul-29 20:03 360 26.7
2014-Jul-29 19:52 360 26.7
2014-Jul-29 19:42 173 26.1
2014-Jul-29 19:31 360 25.6
2014-Jul-29 19:21 360 25.6
2014-Jul-29 19:10 174 25.6
2014-Jul-29 19:00 174 25.6
2014-Jul-29 18:50 174 25.6
2014-Jul-29 18:40 173 26.1
2014-Jul-29 18:30 173 25.6
2014-Jul-29 18:20 173 25.6
2014-Jul-29 18:09 173 25.6
2014-Jul-29 17:58 174 25.6
2014-Jul-29 17:48 174 26.1
2014-Jul-29 17:38 174 26.1
2014-Jul-29 17:28 173 26.1
2014-Jul-29 17:18 173 26.1
2014-Jul-29 17:08 173 26.1
2014-Jul-29 16:58 173 26.1
2014-Jul-29 16:48 174 25.6
2014-Jul-29 16:38 174 25.6
2014-Jul-29 16:28 174 25.6
2014-Jul-29 16:18 174 25.6
2014-Jul-29 16:08 174 25.6
2014-Jul-29 15:57 174 25.6
2014-Jul-29 15:47 174 25.6
2014-Jul-29 15:37 174 25.6
2014-Jul-29 15:27 174 25.6
2014-Jul-29 15:16 174 25.6
2014-Jul-29 15:06 174 25.6
2014-Jul-29 14:42 174 25.6
2014-Jul-29 14:31 174 25.6
2014-Jul-29 14:21 173 25.6
2014-Jul-29 14:11 174 25.6
2014-Jul-29 14:01 174 25.6
2014-Jul-29 13:51 174 25.6
2014-Jul-29 13:41 174 26.1
2014-Jul-29 13:31 174 26.1
2014-Jul-29 13:21 174 25.6
2014-Jul-29 13:11 173 25.6
2014-Jul-29 13:01 173 26.1